Radiation Dose at Monitoring Post of Fukushima Daini Nuclear Power Station
Date,Time,MP-1(microSv/h),MP-2(microSv/h),MP-3(microSv/h),MP-4(microSv/h),MP-5(microSv/h),MP-6(microSv/h),MP-7(microSv/h),Wind Direction,Wind Velocity(m/s),Rain
2016/07/22,00:00,0.420,0.250,0.435,0.394,0.376,0.203,0.174,north-northeast,1.6,No
2016/07/22,00:10,0.420,0.250,0.431,0.398,0.373,0.202,0.176,north,2.1,No
2016/07/22,00:20,0.422,0.248,0.434,0.394,0.374,0.203,0.175,north-northeast,2.1,No
2016/07/22,00:30,0.417,0.250,0.434,0.395,0.374,0.202,0.174,north,1.9,No
2016/07/22,00:40,0.421,0.248,0.431,0.399,0.372,0.203,0.175,north-northeast,2.2,No
2016/07/22,00:50,0.422,0.249,0.434,0.394,0.376,0.204,0.174,north-northeast,2.1,No
2016/07/22,01:00,0.418,0.249,0.432,0.398,0.373,0.203,0.175,north-northeast,2.2,No
2016/07/22,01:10,0.422,0.249,0.432,0.394,0.376,0.202,0.175,north-northeast,4.0,Yes
2016/07/22,01:20,0.418,0.250,0.435,0.396,0.376,0.203,0.174,north-northeast,2.2,Yes
2016/07/22,01:30,0.420,0.249,0.430,0.396,0.371,0.203,0.175,northeast,3.3,Yes
2016/07/22,01:40,0.422,0.249,0.434,0.394,0.376,0.203,0.174,northeast,2.8,Yes
2016/07/22,01:50,0.419,0.249,0.432,0.397,0.374,0.202,0.175,north-northeast,2.2,No
2016/07/22,02:00,0.423,0.249,0.434,0.394,0.375,0.203,0.176,north,3.4,Yes
2016/07/22,02:10,0.418,0.251,0.433,0.398,0.375,0.203,0.174,north,3.6,No
2016/07/22,02:20,0.424,0.249,0.432,0.398,0.373,0.204,0.175,north-northwest,3.7,No
2016/07/22,02:30,0.421,0.251,0.434,0.395,0.376,0.205,0.174,north,3.8,No
2016/07/22,02:40,0.420,0.249,0.431,0.397,0.371,0.203,0.175,north-northwest,3.3,No
2016/07/22,02:50,0.421,0.250,0.433,0.393,0.377,0.204,0.175,north-northwest,4.2,No
2016/07/22,03:00,0.418,0.249,0.432,0.398,0.373,0.202,0.175,north,3.9,No
2016/07/22,03:10,0.423,0.249,0.432,0.395,0.374,0.203,0.175,north-northwest,4.4,No
2016/07/22,03:20,0.419,0.250,0.433,0.396,0.373,0.203,0.173,north-northwest,4.2,Yes
2016/07/22,03:30,0.423,0.248,0.431,0.396,0.373,0.202,0.176,north,3.5,Yes
2016/07/22,03:40,0.420,0.250,0.433,0.393,0.374,0.203,0.174,north-northwest,4.4,Yes
2016/07/22,03:50,0.420,0.248,0.431,0.396,0.370,0.203,0.174,north,5.8,No
2016/07/22,04:00,0.421,0.249,0.434,0.393,0.377,0.202,0.173,north-northwest,4.6,No
2016/07/22,04:10,0.418,0.248,0.431,0.394,0.372,0.204,0.174,north,4.5,No
2016/07/22,04:20,0.423,0.249,0.430,0.396,0.375,0.201,0.175,north,4.8,No
2016/07/22,04:30,0.417,0.249,0.432,0.393,0.374,0.203,0.174,north,3.6,No
2016/07/22,04:40,0.421,0.247,0.430,0.395,0.373,0.203,0.174,north-northeast,2.9,No
2016/07/22,04:50,0.419,0.250,0.432,0.394,0.373,0.201,0.172,northeast,4.5,No
2016/07/22,05:00,0.419,0.248,0.430,0.394,0.371,0.202,0.175,northeast,4.1,No
2016/07/22,05:10,0.421,0.249,0.432,0.395,0.374,0.201,0.172,north,3.0,No
2016/07/22,05:20,0.418,0.249,0.430,0.395,0.371,0.202,0.173,north,3.3,No
2016/07/22,05:30,0.422,0.247,0.429,0.395,0.376,0.201,0.174,north,3.7,No
2016/07/22,05:40,0.418,0.249,0.433,0.393,0.372,0.203,0.173,north,4.5,No
2016/07/22,05:50,0.420,0.248,0.430,0.396,0.372,0.201,0.174,north,4.6,No
2016/07/22,06:00,0.421,0.248,0.433,0.391,0.374,0.201,0.173,north,5.1,No
2016/07/22,06:10,0.418,0.249,0.430,0.394,0.371,0.203,0.174,north,5.0,No
2016/07/22,06:20,0.422,0.247,0.431,0.394,0.374,0.202,0.174,north,5.2,No
2016/07/22,06:30,0.419,0.249,0.433,0.394,0.371,0.202,0.174,north,6.2,No
2016/07/22,06:40,0.422,0.248,0.429,0.394,0.374,0.202,0.175,north,6.1,No
2016/07/22,06:50,0.419,0.248,0.432,0.393,0.373,0.202,0.174,north,5.1,No
2016/07/22,07:00,0.419,0.249,0.432,0.396,0.373,0.203,0.173,north,4.7,No
2016/07/22,07:10,0.422,0.247,0.431,0.396,0.375,0.201,0.173,north-northeast,3.9,No
2016/07/22,07:20,0.417,0.249,0.433,0.393,0.372,0.202,0.172,north,4.1,No
2016/07/22,07:30,0.423,0.249,0.430,0.396,0.376,0.202,0.175,north,5.0,No
2016/07/22,07:40,0.419,0.248,0.433,0.392,0.372,0.201,0.174,north,6.0,No
2016/07/22,07:50,0.418,0.248,0.432,0.394,0.371,0.202,0.173,north,7.0,No
2016/07/22,08:00,0.420,0.247,0.428,0.395,0.374,0.201,0.173,north,7.2,No
2016/07/22,08:10,0.418,0.246,0.434,0.392,0.373,0.201,0.175,north,7.3,No
2016/07/22,08:20,0.418,0.249,0.432,0.392,0.369,0.202,0.174,north,7.3,No
2016/07/22,08:30,0.421,0.248,0.427,0.396,0.374,0.202,0.173,north,8.1,No
2016/07/22,08:40,0.419,0.246,0.431,0.392,0.376,0.202,0.172,north,8.2,No
2016/07/22,08:50,0.416,0.246,0.435,0.392,0.373,0.203,0.173,north-northeast,8.8,No
2016/07/22,09:00,0.420,0.248,0.430,0.391,0.372,0.203,0.172,north,7.4,No
2016/07/22,09:10,0.423,0.250,0.428,0.391,0.370,0.202,0.173,north-northeast,7.9,No
2016/07/22,09:20,0.419,0.248,0.434,0.392,0.370,0.202,0.173,north-northeast,8.1,No
2016/07/22,09:30,0.416,0.247,0.433,0.390,0.370,0.202,0.172,north,7.8,No
2016/07/22,09:40,0.415,0.247,0.429,0.393,0.369,0.203,0.174,north-northeast,8.9,No
2016/07/22,09:50,0.421,0.247,0.431,0.392,0.377,0.201,0.174,north-northeast,9.2,No
2016/07/22,10:00,0.423,0.246,0.423,0.394,0.375,0.203,0.174,north-northeast,8.0,No
2016/07/22,10:10,0.421,0.249,0.417,0.394,0.374,0.203,0.174,north-northeast,7.9,No
2016/07/22,10:20,0.417,0.250,0.421,0.393,0.372,0.203,0.174,north-northeast,7.9,No
2016/07/22,10:30,0.417,0.249,0.422,0.393,0.371,0.203,0.173,north-northeast,8.4,No
2016/07/22,10:40,0.416,0.248,0.419,0.392,0.372,0.203,0.173,north,7.4,No
2016/07/22,10:50,0.422,0.248,0.419,0.393,0.372,0.203,0.174,north,9.4,No
2016/07/22,11:00,0.423,0.247,0.415,0.394,0.368,0.203,0.173,north-northeast,8.4,No
2016/07/22,11:10,0.423,0.247,0.419,0.391,0.372,0.204,0.173,north-northeast,8.4,No
2016/07/22,11:20,0.419,0.248,0.421,0.388,0.371,0.203,0.175,north-northeast,9.8,No
2016/07/22,11:30,0.418,0.250,0.419,0.387,0.372,0.203,0.173,north-northeast,9.8,No
2016/07/22,11:40,0.419,0.250,0.423,0.390,0.379,0.203,0.174,north-northeast,9.7,No
2016/07/22,11:50,0.423,0.250,0.424,0.395,0.377,0.203,0.173,north-northeast,9.2,No
2016/07/22,12:00,0.424,0.248,0.423,0.396,0.374,0.203,0.174,north-northeast,9.2,No
2016/07/22,12:10,0.421,0.247,0.425,0.395,0.372,0.203,0.174,north-northeast,10.6,No
2016/07/22,12:20,0.420,0.248,0.429,0.394,0.372,0.203,0.173,northeast,10.9,No
2016/07/22,12:30,0.419,0.249,0.430,0.396,0.372,0.204,0.174,north-northeast,10.9,No
2016/07/22,12:40,0.422,0.251,0.430,0.395,0.372,0.203,0.175,north-northeast,10.8,No
2016/07/22,12:50,0.426,0.250,0.431,0.395,0.372,0.203,0.174,north-northeast,10.4,No
2016/07/22,13:00,0.423,0.249,0.429,0.395,0.371,0.203,0.174,north-northeast,10.0,No
2016/07/22,13:10,0.419,0.248,0.431,0.395,0.372,0.204,0.174,north-northeast,10.6,No
2016/07/22,13:20,0.420,0.248,0.431,0.394,0.375,0.205,0.174,north-northeast,10.4,No
2016/07/22,13:30,0.425,0.248,0.431,0.394,0.378,0.204,0.175,north-northeast,10.7,No
2016/07/22,13:40,0.422,0.252,0.431,0.395,0.376,0.204,0.174,north-northeast,9.5,No
2016/07/22,13:50,0.421,0.250,0.429,0.394,0.375,0.204,0.174,north-northeast,11.0,No
2016/07/22,14:00,0.419,0.250,0.429,0.395,0.373,0.204,0.174,northeast,8.5,No
2016/07/22,14:10,0.426,0.249,0.430,0.394,0.372,0.203,0.173,north-northeast,8.9,No
2016/07/22,14:20,0.424,0.250,0.431,0.397,0.372,0.205,0.174,north-northeast,9.0,No
2016/07/22,14:30,0.423,0.251,0.432,0.400,0.374,0.204,0.174,north-northeast,10.7,No
2016/07/22,14:40,0.418,0.250,0.438,0.401,0.377,0.204,0.175,north-northeast,9.6,No
2016/07/22,14:50,0.422,0.251,0.437,0.397,0.377,0.203,0.176,north-northeast,9.1,No
2016/07/22,15:00,0.424,0.249,0.434,0.395,0.374,0.204,0.174,north-northeast,9.8,No
2016/07/22,15:10,0.424,0.251,0.433,0.397,0.373,0.203,0.175,north-northeast,10.4,No
2016/07/22,15:20,0.421,0.250,0.432,0.401,0.371,0.203,0.174,north-northeast,9.4,No
2016/07/22,15:30,0.426,0.249,0.432,0.397,0.371,0.204,0.173,north-northeast,8.9,No
2016/07/22,15:40,0.424,0.250,0.431,0.395,0.372,0.203,0.175,north,8.4,No
2016/07/22,15:50,0.422,0.252,0.436,0.401,0.377,0.204,0.176,north-northeast,8.5,No
2016/07/22,16:00,0.427,0.250,0.438,0.398,0.378,0.204,0.175,north,8.9,No
2016/07/22,16:10,0.425,0.249,0.433,0.395,0.374,0.203,0.175,north,8.9,No
2016/07/22,16:20,0.421,0.252,0.432,0.400,0.372,0.205,0.176,north,8.1,No
2016/07/22,16:30,0.425,0.250,0.436,0.397,0.375,0.205,0.175,north,6.8,No
2016/07/22,16:40,0.425,0.249,0.436,0.397,0.378,0.206,0.175,north,8.9,No
2016/07/22,16:50,0.420,0.252,0.433,0.400,0.375,0.204,0.175,north,7.8,No
2016/07/22,17:00,0.427,0.250,0.438,0.398,0.374,0.205,0.176,north,7.9,No
2016/07/22,17:10,0.424,0.251,0.436,0.395,0.377,0.204,0.175,north,7.0,No
2016/07/22,17:20,0.421,0.251,0.433,0.400,0.372,0.203,0.176,north-northeast,6.1,No
2016/07/22,17:30,0.426,0.249,0.439,0.399,0.376,0.204,0.175,north,6.4,No
2016/07/22,17:40,0.422,0.251,0.435,0.395,0.377,0.205,0.174,north,7.2,No
2016/07/22,17:50,0.425,0.250,0.434,0.398,0.373,0.203,0.175,north,7.6,No
2016/07/22,18:00,0.424,0.249,0.438,0.399,0.377,0.204,0.175,north,6.9,No
2016/07/22,18:10,0.422,0.252,0.435,0.397,0.375,0.202,0.174,north-northeast,5.2,No
2016/07/22,18:20,0.425,0.250,0.434,0.401,0.375,0.204,0.175,north,6.1,No
2016/07/22,18:30,0.423,0.251,0.438,0.396,0.377,0.203,0.176,north,5.0,No
2016/07/22,18:40,0.422,0.251,0.432,0.399,0.371,0.203,0.176,north,4.8,No
2016/07/22,18:50,0.424,0.249,0.437,0.400,0.376,0.204,0.176,north,5.6,No
2016/07/22,19:00,0.421,0.251,0.435,0.396,0.375,0.205,0.174,north,6.4,No
2016/07/22,19:10,0.426,0.250,0.433,0.401,0.373,0.203,0.176,north,5.0,No
2016/07/22,19:20,0.424,0.252,0.437,0.397,0.376,0.204,0.176,north,5.5,No
2016/07/22,19:30,0.424,0.253,0.433,0.397,0.373,0.203,0.174,north,6.1,No
2016/07/22,19:40,0.425,0.251,0.437,0.400,0.379,0.203,0.176,north,6.1,No
2016/07/22,19:50,0.421,0.252,0.435,0.396,0.374,0.205,0.176,north,6.4,No
2016/07/22,20:00,0.424,0.250,0.433,0.401,0.375,0.203,0.176,north,5.6,No
2016/07/22,20:10,0.424,0.251,0.436,0.399,0.377,0.204,0.176,north,5.7,No
2016/07/22,20:20,0.424,0.250,0.435,0.398,0.374,0.203,0.175,north,6.4,No
2016/07/22,20:30,0.426,0.249,0.436,0.400,0.376,0.203,0.177,north,6.1,No
2016/07/22,20:40,0.423,0.252,0.435,0.398,0.374,0.203,0.175,north-northeast,6.2,No
2016/07/22,20:50,0.425,0.251,0.433,0.401,0.378,0.204,0.177,north,5.5,No
2016/07/22,21:00,0.422,0.252,0.437,0.399,0.374,0.204,0.177,north,4.4,No
2016/07/22,21:10,0.424,0.251,0.432,0.399,0.374,0.204,0.175,north,5.2,No
2016/07/22,21:20,0.425,0.251,0.436,0.402,0.376,0.204,0.176,north,4.6,Yes
2016/07/22,21:30,0.423,0.251,0.436,0.399,0.372,0.204,0.176,north,4.9,Yes
2016/07/22,21:40,0.426,0.250,0.434,0.399,0.377,0.204,0.175,north,4.7,No
2016/07/22,21:50,0.422,0.252,0.437,0.398,0.373,0.204,0.176,north,5.3,No
2016/07/22,22:00,0.425,0.251,0.434,0.399,0.377,0.204,0.176,north,5.2,No
2016/07/22,22:10,0.425,0.252,0.436,0.400,0.376,0.204,0.176,north,5.9,No
2016/07/22,22:20,0.422,0.252,0.436,0.397,0.373,0.204,0.175,north,5.3,No
2016/07/22,22:30,0.426,0.251,0.436,0.401,0.377,0.204,0.176,north,5.3,No
2016/07/22,22:40,0.423,0.252,0.436,0.398,0.373,0.205,0.177,north,5.0,No
2016/07/22,22:50,0.425,0.250,0.433,0.400,0.377,0.203,0.177,north,5.6,No
2016/07/22,23:00,0.422,0.251,0.436,0.400,0.374,0.204,0.177,north,5.3,No
2016/07/22,23:10,0.425,0.251,0.435,0.397,0.377,0.205,0.176,north,5.3,No
2016/07/22,23:20,0.424,0.249,0.437,0.402,0.377,0.204,0.176,north,5.3,No
2016/07/22,23:30,0.422,0.251,0.437,0.398,0.375,0.205,0.176,north,4.7,No
2016/07/22,23:40,0.426,0.251,0.434,0.400,0.376,0.203,0.176,north,4.9,No
2016/07/22,23:50,0.423,0.251,0.437,0.399,0.373,0.205,0.177,north,5.9,No
